TimeWET,TemperatureF,Dew PointF,Humidity,Sea Level PressureIn,VisibilityMPH,Wind Direction,Wind SpeedMPH,Gust SpeedMPH,PrecipitationIn,Events,Conditions,WindDirDegrees,DateUTC
12:00 AM,61,55,75,29.84,9,WSW,8.1,,,,Partly Cloudy,240,2012-10-28 00:00:00
12:00 AM,60.8,55.4,82,29.86,6.2,WSW,8.1,-,N/A,,Mostly Cloudy,240,2012-10-28 00:00:00
2:00 AM,60.8,55.4,82,29.86,6.2,West,9.2,-,N/A,,Partly Cloudy,260,2012-10-28 02:00:00
3:00 AM,60,55,80,29.86,9,West,9.2,,,,Partly Cloudy,280,2012-10-28 03:00:00
3:00 AM,60.8,55.4,82,29.89,6.2,West,9.2,-,N/A,,Partly Cloudy,280,2012-10-28 03:00:00
5:00 AM,59.0,53.6,82,29.89,6.2,WSW,9.2,-,N/A,,Scattered Clouds,250,2012-10-28 05:00:00
7:00 AM,59.0,51.8,77,29.95,6.2,West,6.9,-,N/A,,Mostly Cloudy,260,2012-10-28 07:00:00
8:00 AM,60.8,51.8,72,29.95,6.2,West,12.7,-,N/A,,Mostly Cloudy,260,2012-10-28 08:00:00
9:00 AM,64,52,56,29.94,9,West,13.8,,,,Mostly Cloudy,270,2012-10-28 09:00:00
9:00 AM,64.4,51.8,64,29.98,6.2,West,13.8,-,N/A,,Mostly Cloudy,270,2012-10-28 09:00:00
11:00 AM,59.0,53.6,82,30.01,6.2,East,15.0,-,N/A,,Mostly Cloudy,80,2012-10-28 11:00:00
11:55 AM,57.2,53.6,88,30.01,2.5,East,12.7,-,N/A,,Mostly Cloudy,80,2012-10-28 11:55:00
12:00 PM,57,53,80,29.99,4,East,12.7,,,,Overcast,80,2012-10-28 12:00:00
12:10 PM,55.4,53.6,94,30.01,0.9,East,11.5,-,N/A,,Mostly Cloudy,80,2012-10-28 12:10:00
12:43 PM,57.2,53.6,88,29.98,3.7,East,10.4,-,N/A,,Mostly Cloudy,90,2012-10-28 12:43:00
1:00 PM,55.4,53.6,94,30.01,5.0,East,10.4,-,N/A,,Mostly Cloudy,80,2012-10-28 13:00:00
2:00 PM,59.0,55.4,88,29.98,6.2,East,6.9,-,N/A,,Mostly Cloudy,80,2012-10-28 14:00:00
3:00 PM,60,53,72,29.97,7,East,6.9,,,,Mostly Cloudy,100,2012-10-28 15:00:00
3:00 PM,60.8,53.6,77,29.98,6.2,East,6.9,-,N/A,,Mostly Cloudy,100,2012-10-28 15:00:00
5:00 PM,60.8,53.6,77,30.01,6.2,ESE,5.8,-,N/A,,Scattered Clouds,110,2012-10-28 17:00:00
8:00 PM,55.4,51.8,88,30.04,6.2,Calm,Calm,-,N/A,,Scattered Clouds,0,2012-10-28 20:00:00
9:00 PM,53,50,87,30.06,9,SSW,3.5,,,,Partly Cloudy,210,2012-10-28 21:00:00
9:00 PM,53.6,50.0,88,30.04,6.2,SSW,3.5,-,N/A,,Scattered Clouds,210,2012-10-28 21:00:00
10:00 PM,51.8,50.0,94,30.06,6.2,WSW,2.3,-,N/A,,Scattered Clouds,240,2012-10-28 22:00:00
11:00 PM,51.8,48.2,88,30.04,6.2,SW,1.2,-,N/A,,Scattered Clouds,230,2012-10-28 23:00:00